Previsão horária em Plociczno

Hoje, 5 Março, Sexta-feira

Tempo Temperatura Precipitação Vento Pressão Humidade
00:00 -3°C° 0 mm 2 m/s 744 mmHg 81%
01:00 -4°C° 0 mm 2 m/s 744 mmHg 80%
02:00 -4°C° 0 mm 2 m/s 745 mmHg 78%
03:00 -4°C° 0 mm 2 m/s 745 mmHg 76%
04:00 -4°C° 0 mm 2 m/s 745 mmHg 74%
05:00 -4°C° 0 mm 2 m/s 745 mmHg 72%
06:00 -4°C° 0 mm 2 m/s 745 mmHg 72%
07:00 -4°C° 0 mm 2 m/s 746 mmHg 72%
08:00 -5°C° 0 mm 3 m/s 746 mmHg 72%
09:00 -4°C° 0 mm 3 m/s 746 mmHg 67%
10:00 -2°C° 0 mm 3 m/s 747 mmHg 61%
11:00 -2°C° 0 mm 4 m/s 747 mmHg 56%
12:00 -2°C° 0 mm 4 m/s 747 mmHg 48%
13:00 -1°C° 0 mm 4 m/s 747 mmHg 41%
14:00 -1°C° 0 mm 4 m/s 747 mmHg 33%
15:00 0°C° 0 mm 3 m/s 748 mmHg 35%
16:00 0°C° 0 mm 3 m/s 748 mmHg 37%
17:00 -1°C° 0 mm 3 m/s 748 mmHg 39%
18:00 -1°C° 0 mm 3 m/s 748 mmHg 46%
19:00 -2°C° 0 mm 3 m/s 749 mmHg 53%
20:00 -4°C° 0 mm 3 m/s 749 mmHg 60%
21:00 -4°C° 0 mm 3 m/s 749 mmHg 64%
22:00 -4°C° 0 mm 3 m/s 750 mmHg 69%
23:00 -4°C° 0 mm 4 m/s 750 mmHg 74%

Amanhã, 6 Março, Sábado

Tempo Temperatura Precipitação Vento Pressão Humidade
00:00 -4°C° 0 mm 4 m/s 750 mmHg 72%
01:00 -5°C° 0 mm 4 m/s 751 mmHg 71%
02:00 -5°C° 0 mm 4 m/s 751 mmHg 69%
03:00 -5°C° 0 mm 4 m/s 751 mmHg 70%
04:00 -7°C° 0 mm 4 m/s 751 mmHg 71%
05:00 -7°C° 0 mm 4 m/s 751 mmHg 71%
06:00 -7°C° 0 mm 4 m/s 752 mmHg 68%
07:00 -6°C° 0 mm 3 m/s 753 mmHg 64%
08:00 -6°C° 0 mm 3 m/s 753 mmHg 60%
09:00 -5°C° 0 mm 3 m/s 753 mmHg 57%
10:00 -4°C° 0 mm 3 m/s 753 mmHg 53%
11:00 -2°C° 0 mm 3 m/s 753 mmHg 50%
12:00 -2°C° 0 mm 4 m/s 753 mmHg 49%
13:00 -1°C° 0 mm 4 m/s 753 mmHg 48%
14:00 -1°C° 0 mm 4 m/s 753 mmHg 47%
15:00 -1°C° 0 mm 4 m/s 752 mmHg 48%
16:00 -1°C° 0 mm 4 m/s 751 mmHg 50%
17:00 -1°C° 0 mm 5 m/s 751 mmHg 51%
18:00 -1°C° 0 mm 5 m/s 750 mmHg 55%
19:00 -2°C° 0 mm 5 m/s 749 mmHg 59%
20:00 -4°C° 0 mm 5 m/s 749 mmHg 62%
21:00 -4°C° 0 mm 6 m/s 748 mmHg 66%
22:00 -4°C° 0 mm 7 m/s 747 mmHg 69%
23:00 -3°C° 0 mm 7 m/s 747 mmHg 72%

Depois de amanhã, 7 Março, Domingo

Tempo Temperatura Precipitação Vento Pressão Humidade
00:00 -4°C° 0.1 mm 8 m/s 746 mmHg 79%
01:00 -4°C° 0.1 mm 8 m/s 745 mmHg 86%
02:00 -4°C° 0.1 mm 9 m/s 745 mmHg 93%
03:00 -4°C° 0.2 mm 9 m/s 744 mmHg 93%
04:00 -4°C° 0.2 mm 9 m/s 743 mmHg 93%
05:00 -4°C° 0.2 mm 9 m/s 743 mmHg 93%
06:00 -4°C° 0.6 mm 8 m/s 743 mmHg 92%
07:00 -4°C° 0.6 mm 7 m/s 743 mmHg 91%
08:00 -4°C° 0.6 mm 6 m/s 743 mmHg 90%
09:00 -4°C° 0.2 mm 6 m/s 743 mmHg 87%
10:00 -4°C° 0.2 mm 5 m/s 743 mmHg 84%
11:00 -3°C° 0.2 mm 4 m/s 743 mmHg 82%
12:00 -2°C° 0.2 mm 4 m/s 743 mmHg 83%
13:00 -2°C° 0.2 mm 4 m/s 743 mmHg 84%
14:00 -2°C° 0.2 mm 5 m/s 742 mmHg 85%
15:00 -2°C° 0.4 mm 4 m/s 742 mmHg 87%
16:00 -2°C° 0.4 mm 4 m/s 741 mmHg 89%
17:00 -2°C° 0.4 mm 4 m/s 741 mmHg 91%
18:00 -3°C° 0.2 mm 4 m/s 741 mmHg 89%
19:00 -3°C° 0.2 mm 4 m/s 741 mmHg 87%
20:00 -4°C° 0.2 mm 4 m/s 741 mmHg 84%
21:00 -4°C° 0 mm 4 m/s 741 mmHg 83%
22:00 -5°C° 0 mm 3 m/s 741 mmHg 81%
23:00 -5°C° 0 mm 3 m/s 742 mmHg 79%

8 Março, Segunda-feira

Tempo Temperatura Precipitação Vento Pressão Humidade
00:00 -5°C° 0 mm 3 m/s 742 mmHg 79%
01:00 -6°C° 0 mm 3 m/s 742 mmHg 79%
02:00 -6°C° 0 mm 3 m/s 742 mmHg 79%
03:00 -6°C° 0 mm 3 m/s 742 mmHg 80%
04:00 -6°C° 0 mm 3 m/s 742 mmHg 81%
05:00 -5°C° 0 mm 2 m/s 742 mmHg 82%
06:00 -6°C° 0 mm 3 m/s 742 mmHg 83%
07:00 -6°C° 0 mm 3 m/s 743 mmHg 84%
08:00 -5°C° 0 mm 3 m/s 743 mmHg 84%
09:00 -5°C° 0.1 mm 3 m/s 743 mmHg 79%
10:00 -4°C° 0.1 mm 4 m/s 743 mmHg 74%
11:00 -3°C° 0.1 mm 4 m/s 744 mmHg 69%
12:00 -3°C° 0.1 mm 4 m/s 744 mmHg 68%
13:00 -4°C° 0.1 mm 5 m/s 744 mmHg 66%
14:00 -4°C° 0.1 mm 5 m/s 744 mmHg 65%
15:00 -4°C° 0.1 mm 5 m/s 745 mmHg 63%
16:00 -4°C° 0.1 mm 5 m/s 745 mmHg 62%
17:00 -4°C° 0.1 mm 5 m/s 745 mmHg 61%
18:00 -5°C° 0 mm 5 m/s 746 mmHg 63%
19:00 -5°C° 0 mm 4 m/s 746 mmHg 65%
20:00 -7°C° 0 mm 4 m/s 747 mmHg 68%
21:00 -7°C° 0 mm 4 m/s 748 mmHg 67%
22:00 -7°C° 0 mm 3 m/s 748 mmHg 67%
23:00 -7°C° 0 mm 3 m/s 749 mmHg 66%

9 Março, Terça-feira

Tempo Temperatura Precipitação Vento Pressão Humidade
00:00 -7°C° 0 mm 3 m/s 749 mmHg 66%
01:00 -8°C° 0 mm 3 m/s 749 mmHg 66%
02:00 -8°C° 0 mm 3 m/s 750 mmHg 66%
03:00 -8°C° 0 mm 3 m/s 750 mmHg 67%
04:00 -8°C° 0 mm 2 m/s 750 mmHg 68%
05:00 -8°C° 0 mm 2 m/s 750 mmHg 69%
06:00 -8°C° 0 mm 2 m/s 751 mmHg 69%
07:00 -8°C° 0 mm 2 m/s 751 mmHg 69%
08:00 -8°C° 0 mm 2 m/s 751 mmHg 69%
09:00 -6°C° 0 mm 1 m/s 752 mmHg 61%
10:00 -4°C° 0 mm 1 m/s 752 mmHg 52%
11:00 -4°C° 0 mm 0 m/s 752 mmHg 44%
12:00 -3°C° 0 mm 1 m/s 752 mmHg 42%
13:00 -2°C° 0 mm 1 m/s 752 mmHg 40%
14:00 -2°C° 0 mm 1 m/s 752 mmHg 38%
15:00 -2°C° 0 mm 1 m/s 752 mmHg 41%
16:00 -2°C° 0 mm 1 m/s 752 mmHg 44%
17:00 -2°C° 0 mm 1 m/s 751 mmHg 47%
18:00 -2°C° 0 mm 1 m/s 751 mmHg 53%
19:00 -5°C° 0 mm 2 m/s 751 mmHg 58%
20:00 -5°C° 0 mm 2 m/s 751 mmHg 64%
21:00 -6°C° 0 mm 2 m/s 751 mmHg 65%
22:00 -6°C° 0 mm 2 m/s 751 mmHg 66%
23:00 -6°C° 0 mm 2 m/s 751 mmHg 67%

10 Março, Quarta-feira

Tempo Temperatura Precipitação Vento Pressão Humidade
00:00 -7°C° 0 mm 2 m/s 751 mmHg 66%
01:00 -7°C° 0 mm 2 m/s 751 mmHg 65%
02:00 -7°C° 0 mm 2 m/s 751 mmHg 64%
03:00 -8°C° 0 mm 3 m/s 751 mmHg 64%
04:00 -8°C° 0 mm 3 m/s 750 mmHg 63%
05:00 -8°C° 0 mm 3 m/s 750 mmHg 63%
06:00 -8°C° 0 mm 3 m/s 750 mmHg 63%
07:00 -8°C° 0 mm 3 m/s 750 mmHg 62%
08:00 -7°C° 0 mm 3 m/s 750 mmHg 62%
09:00 -6°C° 0 mm 3 m/s 750 mmHg 59%
10:00 -5°C° 0 mm 3 m/s 750 mmHg 56%
11:00 -4°C° 0 mm 4 m/s 750 mmHg 53%
12:00 -3°C° 0 mm 4 m/s 749 mmHg 52%
13:00 -2°C° 0 mm 4 m/s 749 mmHg 50%
14:00 -2°C° 0 mm 4 m/s 749 mmHg 49%
15:00 -2°C° 0 mm 4 m/s 748 mmHg 51%
16:00 -1°C° 0 mm 3 m/s 748 mmHg 53%
17:00 -1°C° 0 mm 3 m/s 748 mmHg 54%
18:00 -2°C° 0 mm 3 m/s 747 mmHg 58%
19:00 -2°C° 0 mm 3 m/s 747 mmHg 62%
20:00 -4°C° 0 mm 3 m/s 747 mmHg 66%
21:00 -4°C° 0 mm 3 m/s 746 mmHg 65%
22:00 -4°C° 0 mm 3 m/s 746 mmHg 64%
23:00 -4°C° 0 mm 3 m/s 746 mmHg 63%
Mostrar mais

Necessitamos do seu Consentimento

A Meteoprog e os seus Fornecedores de Serviços podem armazenar e aceder a dados pessoais como cookies, identificadores do dispositivo ou outras tecnologias semelhantes existentes no seu dispositivo e processar estes dados para personalizar conteúdos e anúncios, assim como funcionalidades nas redes sociais e análise de tráfego.

  • Armazenar e/ou aceder a informações no seu dispositivo

    Os cookies, identificadores do dispositivo ou outras informações podem ser armazenados ou acedidos no seu dispositivo, para os fins acima indicados.

  • Anúncios e conteúdos personalizados, medição de anúncios e conteúdos, dados sobre o público-alvo e desenvolvimento de produtos

    Os anúncios e os conteúdos podem ser personalizados com base num perfil. Podem ser adicionados dados adicionais para uma maior personalização dos anúncios e dos conteúdos. A eficácia dos anúncios e dos conteúdos pode ser medida. Podem ser obtidas informações sobre o público que visualizou os anúncios e os conteúdos. Estes dados podem ser usados para desenvolver ou melhorar sistemas, softwares ou a experiência do utilizador.

Ao clicar em "Eu concordo”, permitirá o uso de cookies, identificadores do dispositivo e web beacons mencionados ou outras tecnologias semelhantes. As configurações do navegador do seu dispositivo podem ser alteradas.

Para certos fins, podem ser invocados interesses legítimos ao invés de consentimento. Pode ler mais informação sobre este assunto na nossa Política de Privacidade e Cookies.